Year,Month,Day,Hour,Minute,Value (Times are PST for temperature in C)
2014,06,21,00,00,12.40
2014,06,21,00,01,12.40
2014,06,21,00,02,12.40
2014,06,21,00,03,12.40
2014,06,21,00,04,12.40
2014,06,21,00,05,12.40
2014,06,21,00,06,12.40
2014,06,21,00,07,12.40
2014,06,21,00,08,12.40
2014,06,21,00,09,12.40
2014,06,21,00,10,12.40
2014,06,21,00,11,12.40
2014,06,21,00,12,12.40
2014,06,21,00,13,12.40
2014,06,21,00,14,12.40
2014,06,21,00,15,12.40
2014,06,21,00,16,12.40
2014,06,21,00,17,12.40
2014,06,21,00,18,12.40
2014,06,21,00,19,12.40
2014,06,21,00,20,12.40
2014,06,21,00,21,12.40
2014,06,21,00,22,12.40
2014,06,21,00,23,12.40
2014,06,21,00,24,12.40
2014,06,21,00,25,12.40
2014,06,21,00,26,12.40
2014,06,21,00,27,12.30
2014,06,21,00,28,12.30
2014,06,21,00,29,12.30
2014,06,21,00,30,12.30
2014,06,21,00,31,12.30
2014,06,21,00,32,12.30
2014,06,21,00,33,12.30
2014,06,21,00,34,12.30
2014,06,21,00,35,12.30
2014,06,21,00,36,12.30
2014,06,21,00,37,12.30
2014,06,21,00,38,12.30
2014,06,21,00,39,12.30
2014,06,21,00,40,12.30
2014,06,21,00,41,12.30
2014,06,21,00,42,12.30
2014,06,21,00,43,12.30
2014,06,21,00,44,12.30
2014,06,21,00,45,12.30
2014,06,21,00,46,12.30
2014,06,21,00,47,12.30
2014,06,21,00,48,12.30
2014,06,21,00,49,12.30
2014,06,21,00,50,12.30
2014,06,21,00,51,12.30
2014,06,21,00,52,12.30
2014,06,21,00,53,12.30
2014,06,21,00,54,12.30
2014,06,21,00,55,12.20
2014,06,21,00,56,12.20
2014,06,21,00,57,12.20
2014,06,21,00,58,12.20
2014,06,21,00,59,12.10
2014,06,21,01,00,12.10
2014,06,21,01,01,12.00
2014,06,21,01,02,12.00
2014,06,21,01,03,12.00
2014,06,21,01,04,11.90
2014,06,21,01,05,11.90
2014,06,21,01,06,11.90
2014,06,21,01,07,11.90
2014,06,21,01,08,11.80
2014,06,21,01,09,11.80
2014,06,21,01,10,11.80
2014,06,21,01,11,11.80
2014,06,21,01,12,11.90
2014,06,21,01,13,11.90
2014,06,21,01,14,11.90
2014,06,21,01,15,11.90
2014,06,21,01,16,11.90
2014,06,21,01,17,11.90
2014,06,21,01,18,11.90
2014,06,21,01,19,11.90
2014,06,21,01,20,11.90
2014,06,21,01,21,11.90
2014,06,21,01,22,11.90
2014,06,21,01,23,11.90
2014,06,21,01,24,11.80
2014,06,21,01,25,11.80
2014,06,21,01,26,11.80
2014,06,21,01,27,11.80
2014,06,21,01,28,11.80
2014,06,21,01,29,11.70
2014,06,21,01,30,11.70
2014,06,21,01,31,11.70
2014,06,21,01,32,11.70
2014,06,21,01,33,11.70
2014,06,21,01,34,11.70
2014,06,21,01,35,11.60
2014,06,21,01,36,11.60
2014,06,21,01,37,11.60
2014,06,21,01,38,11.50
2014,06,21,01,39,11.50
2014,06,21,01,40,11.50
2014,06,21,01,41,11.50
2014,06,21,01,42,11.40
2014,06,21,01,43,11.40
2014,06,21,01,44,11.40
2014,06,21,01,45,11.40
2014,06,21,01,46,11.40
2014,06,21,01,47,11.40
2014,06,21,01,48,11.40
2014,06,21,01,49,11.40
2014,06,21,01,50,11.30
2014,06,21,01,51,11.30
2014,06,21,01,52,11.30
2014,06,21,01,53,11.30
2014,06,21,01,54,11.20
2014,06,21,01,55,11.20
2014,06,21,01,56,11.20
2014,06,21,01,57,11.20
2014,06,21,01,58,11.20
2014,06,21,01,59,11.20
2014,06,21,02,00,11.10
2014,06,21,02,01,11.10
2014,06,21,02,02,11.20
2014,06,21,02,03,11.20
2014,06,21,02,04,11.20
2014,06,21,02,05,11.20
2014,06,21,02,06,11.20
2014,06,21,02,07,11.20
2014,06,21,02,08,11.20
2014,06,21,02,09,11.20
2014,06,21,02,10,11.20
2014,06,21,02,11,11.10
2014,06,21,02,12,11.10
2014,06,21,02,13,11.10
2014,06,21,02,14,11.10
2014,06,21,02,15,11.10
2014,06,21,02,16,11.00
2014,06,21,02,17,11.00
2014,06,21,02,18,11.00
2014,06,21,02,19,11.00
2014,06,21,02,20,10.90
2014,06,21,02,21,10.90
2014,06,21,02,22,10.90
2014,06,21,02,23,10.90
2014,06,21,02,24,10.90
2014,06,21,02,25,10.90
2014,06,21,02,26,10.90
2014,06,21,02,27,10.80
2014,06,21,02,28,10.80
2014,06,21,02,29,10.80
2014,06,21,02,30,10.80
2014,06,21,02,31,10.70
2014,06,21,02,32,10.70
2014,06,21,02,33,10.70
2014,06,21,02,34,10.60
2014,06,21,02,35,10.60
2014,06,21,02,36,10.60
2014,06,21,02,37,10.60
2014,06,21,02,38,10.50
2014,06,21,02,39,10.50
2014,06,21,02,40,10.50
2014,06,21,02,41,10.40
2014,06,21,02,42,10.40
2014,06,21,02,43,10.40
2014,06,21,02,44,10.40
2014,06,21,02,45,10.40
2014,06,21,02,46,10.30
2014,06,21,02,47,10.30
2014,06,21,02,48,10.30
2014,06,21,02,49,10.30
2014,06,21,02,50,10.30
2014,06,21,02,51,10.30
2014,06,21,02,52,10.30
2014,06,21,02,53,10.30
2014,06,21,02,54,10.30
2014,06,21,02,55,10.30
2014,06,21,02,56,10.30
2014,06,21,02,57,10.30
2014,06,21,02,58,10.30
2014,06,21,02,59,10.30
2014,06,21,03,00,10.30
2014,06,21,03,01,10.30
2014,06,21,03,02,10.30
2014,06,21,03,03,10.20
2014,06,21,03,04,10.20
2014,06,21,03,05,10.20
2014,06,21,03,06,10.20
2014,06,21,03,07,10.20
2014,06,21,03,08,10.20
2014,06,21,03,09,10.30
2014,06,21,03,10,10.30
2014,06,21,03,11,10.30
2014,06,21,03,12,10.30
2014,06,21,03,13,10.30
2014,06,21,03,14,10.30
2014,06,21,03,15,10.30
2014,06,21,03,16,10.30
2014,06,21,03,17,10.40
2014,06,21,03,18,10.40
2014,06,21,03,19,10.40
2014,06,21,03,20,10.40
2014,06,21,03,21,10.30
2014,06,21,03,22,10.30
2014,06,21,03,23,10.30
2014,06,21,03,24,10.30
2014,06,21,03,25,10.30
2014,06,21,03,26,10.30
2014,06,21,03,27,10.30
2014,06,21,03,28,10.30
2014,06,21,03,29,10.30
2014,06,21,03,30,10.30
2014,06,21,03,31,10.20
2014,06,21,03,32,10.20
2014,06,21,03,33,10.20
2014,06,21,03,34,10.10
2014,06,21,03,35,10.10
2014,06,21,03,36,10.10
2014,06,21,03,37,10.10
2014,06,21,03,38,10.00
2014,06,21,03,39,10.00
2014,06,21,03,40,9.90
2014,06,21,03,41,9.90
2014,06,21,03,42,9.90
2014,06,21,03,43,9.90
2014,06,21,03,44,9.80
2014,06,21,03,45,9.80
2014,06,21,03,46,9.80
2014,06,21,03,47,9.80
2014,06,21,03,48,9.80
2014,06,21,03,49,9.80
2014,06,21,03,50,9.70
2014,06,21,03,51,9.70
2014,06,21,03,52,9.70
2014,06,21,03,53,9.70
2014,06,21,03,54,9.70
2014,06,21,03,55,9.70
2014,06,21,03,56,9.70
2014,06,21,03,57,9.70
2014,06,21,03,58,9.60
2014,06,21,03,59,9.60
2014,06,21,04,00,9.60
2014,06,21,04,01,9.60
2014,06,21,04,02,9.60
2014,06,21,04,03,9.50
2014,06,21,04,04,9.50
2014,06,21,04,05,9.50
2014,06,21,04,06,9.40
2014,06,21,04,07,9.40
2014,06,21,04,08,9.40
2014,06,21,04,09,9.40
2014,06,21,04,10,9.40
2014,06,21,04,11,9.40
2014,06,21,04,12,9.30
2014,06,21,04,13,9.30
2014,06,21,04,14,9.30
2014,06,21,04,15,9.30
2014,06,21,04,16,9.30
2014,06,21,04,17,9.30
2014,06,21,04,18,9.30
2014,06,21,04,19,9.20
2014,06,21,04,20,9.20
2014,06,21,04,21,9.20
2014,06,21,04,22,9.20
2014,06,21,04,23,9.20
2014,06,21,04,24,9.20
2014,06,21,04,25,9.20
2014,06,21,04,26,9.20
2014,06,21,04,27,9.20
2014,06,21,04,28,9.20
2014,06,21,04,29,9.10
2014,06,21,04,30,9.10
2014,06,21,04,31,9.10
2014,06,21,04,32,9.10
2014,06,21,04,33,9.10
2014,06,21,04,34,9.10
2014,06,21,04,35,9.10
2014,06,21,04,36,9.10
2014,06,21,04,37,9.10
2014,06,21,04,38,9.10
2014,06,21,04,39,9.10
2014,06,21,04,40,9.10
2014,06,21,04,41,9.10
2014,06,21,04,42,9.10
2014,06,21,04,43,9.10
2014,06,21,04,44,9.10
2014,06,21,04,45,9.10
2014,06,21,04,46,9.10
2014,06,21,04,47,9.00
2014,06,21,04,48,9.00
2014,06,21,04,49,9.00
2014,06,21,04,50,9.00
2014,06,21,04,51,9.00
2014,06,21,04,52,9.00
2014,06,21,04,53,9.00
2014,06,21,04,54,8.90
2014,06,21,04,55,8.90
2014,06,21,04,56,8.90
2014,06,21,04,57,8.90
2014,06,21,04,58,8.90
2014,06,21,04,59,8.90
2014,06,21,05,00,8.80
2014,06,21,05,01,8.80
2014,06,21,05,02,8.80
2014,06,21,05,03,8.80
2014,06,21,05,04,8.80
2014,06,21,05,05,8.80
2014,06,21,05,06,8.80
2014,06,21,05,07,8.70
2014,06,21,05,08,8.70
2014,06,21,05,09,8.70
2014,06,21,05,10,8.70
2014,06,21,05,11,8.70
2014,06,21,05,12,8.70
2014,06,21,05,13,8.70
2014,06,21,05,14,8.70
2014,06,21,05,15,8.70
2014,06,21,05,16,8.70
2014,06,21,05,17,8.60
2014,06,21,05,18,8.60
2014,06,21,05,19,8.60
2014,06,21,05,20,8.60
2014,06,21,05,21,8.60
2014,06,21,05,22,8.50
2014,06,21,05,23,8.50
2014,06,21,05,24,8.60
2014,06,21,05,25,8.60
2014,06,21,05,26,8.50
2014,06,21,05,27,8.50
2014,06,21,05,28,8.50
2014,06,21,05,29,8.50
2014,06,21,05,30,8.40
2014,06,21,05,31,8.40
2014,06,21,05,32,8.40
2014,06,21,05,33,8.40
2014,06,21,05,34,8.40
2014,06,21,05,35,8.40
2014,06,21,05,36,8.40
2014,06,21,05,37,8.40
2014,06,21,05,38,8.40
2014,06,21,05,39,8.40
2014,06,21,05,40,8.40
2014,06,21,05,41,8.40
2014,06,21,05,42,8.50
2014,06,21,05,43,8.50
2014,06,21,05,44,8.50
2014,06,21,05,45,8.50
2014,06,21,05,46,8.50
2014,06,21,05,47,8.50
2014,06,21,05,48,8.50
2014,06,21,05,49,8.50
2014,06,21,05,50,8.60
2014,06,21,05,51,8.60
2014,06,21,05,52,8.60
2014,06,21,05,53,8.60
2014,06,21,05,54,8.60
2014,06,21,05,55,8.60
2014,06,21,05,56,8.70
2014,06,21,05,57,8.70
2014,06,21,05,58,8.70
2014,06,21,05,59,8.80
2014,06,21,06,00,8.80
2014,06,21,06,01,8.80
2014,06,21,06,02,8.80
2014,06,21,06,03,8.80
2014,06,21,06,04,8.80
2014,06,21,06,05,8.80
2014,06,21,06,06,8.80
2014,06,21,06,07,8.80
2014,06,21,06,08,8.80
2014,06,21,06,09,8.90
2014,06,21,06,10,8.90
2014,06,21,06,11,8.90
2014,06,21,06,12,8.90
2014,06,21,06,13,8.90
2014,06,21,06,14,8.90
2014,06,21,06,15,9.00
2014,06,21,06,16,9.00
2014,06,21,06,17,9.00
2014,06,21,06,18,9.00
2014,06,21,06,19,9.10
2014,06,21,06,20,9.10
2014,06,21,06,21,9.10
2014,06,21,06,22,9.10
2014,06,21,06,23,9.10
2014,06,21,06,24,9.20
2014,06,21,06,25,9.20
2014,06,21,06,26,9.20
2014,06,21,06,27,9.30
2014,06,21,06,28,9.30
2014,06,21,06,29,9.40
2014,06,21,06,30,9.40
2014,06,21,06,31,9.40
2014,06,21,06,32,9.50
2014,06,21,06,33,9.50
2014,06,21,06,34,9.60
2014,06,21,06,35,9.60
2014,06,21,06,36,9.60
2014,06,21,06,37,9.60
2014,06,21,06,38,9.70
2014,06,21,06,39,9.70
2014,06,21,06,40,9.70
2014,06,21,06,41,9.80
2014,06,21,06,42,9.80
2014,06,21,06,43,9.90
2014,06,21,06,44,9.90
2014,06,21,06,45,10.00
2014,06,21,06,46,10.00
2014,06,21,06,47,10.10
2014,06,21,06,48,10.20
2014,06,21,06,49,10.30
2014,06,21,06,50,10.30
2014,06,21,06,51,10.40
2014,06,21,06,52,10.50
2014,06,21,06,53,10.60
2014,06,21,06,54,10.70
2014,06,21,06,55,10.70
2014,06,21,06,56,10.80
2014,06,21,06,57,10.80
2014,06,21,06,58,10.90
2014,06,21,06,59,10.90
2014,06,21,07,00,10.90
2014,06,21,07,01,11.00
2014,06,21,07,02,11.00
2014,06,21,07,03,11.10
2014,06,21,07,04,11.10
2014,06,21,07,05,11.20
2014,06,21,07,06,11.20
2014,06,21,07,07,11.20
2014,06,21,07,08,11.30
2014,06,21,07,09,11.30
2014,06,21,07,10,11.40
2014,06,21,07,11,11.40
2014,06,21,07,12,11.40
2014,06,21,07,13,11.50
2014,06,21,07,14,11.50
2014,06,21,07,15,11.60
2014,06,21,07,16,11.60
2014,06,21,07,17,11.70
2014,06,21,07,18,11.80
2014,06,21,07,19,11.80
2014,06,21,07,20,11.90
2014,06,21,07,21,12.00
2014,06,21,07,22,12.00
2014,06,21,07,23,12.10
2014,06,21,07,24,12.10
2014,06,21,07,25,12.20
2014,06,21,07,26,12.20
2014,06,21,07,27,12.30
2014,06,21,07,28,12.30
2014,06,21,07,29,12.40
2014,06,21,07,30,12.50
2014,06,21,07,31,12.50
2014,06,21,07,32,12.60
2014,06,21,07,33,12.60
2014,06,21,07,34,12.70
2014,06,21,07,35,12.70
2014,06,21,07,36,12.70
2014,06,21,07,37,12.70
2014,06,21,07,38,12.80
2014,06,21,07,39,12.80
2014,06,21,07,40,12.80
2014,06,21,07,41,12.80
2014,06,21,07,42,12.90
2014,06,21,07,43,12.90
2014,06,21,07,44,12.90
2014,06,21,07,45,12.90
2014,06,21,07,46,12.90
2014,06,21,07,47,12.90
2014,06,21,07,48,13.00
2014,06,21,07,49,13.00
2014,06,21,07,50,13.00
2014,06,21,07,51,13.10
2014,06,21,07,52,13.10
2014,06,21,07,53,13.20
2014,06,21,07,54,13.30
2014,06,21,07,55,13.40
2014,06,21,07,56,13.60
2014,06,21,07,57,13.80
2014,06,21,07,58,13.90
2014,06,21,07,59,14.00
2014,06,21,08,00,14.10
2014,06,21,08,01,14.20
2014,06,21,08,02,14.30
2014,06,21,08,03,14.40
2014,06,21,08,04,14.40
2014,06,21,08,05,14.50
2014,06,21,08,06,14.60
2014,06,21,08,07,14.60
2014,06,21,08,08,14.60
2014,06,21,08,09,14.60
2014,06,21,08,10,14.70
2014,06,21,08,11,14.80
2014,06,21,08,12,14.80
2014,06,21,08,13,14.90
2014,06,21,08,14,15.00
2014,06,21,08,15,15.00
2014,06,21,08,16,15.10
2014,06,21,08,17,15.10
2014,06,21,08,18,15.10
2014,06,21,08,19,15.20
2014,06,21,08,20,15.20
2014,06,21,08,21,15.20
2014,06,21,08,22,15.30
2014,06,21,08,23,15.30
2014,06,21,08,24,15.30
2014,06,21,08,25,15.40
2014,06,21,08,26,15.40
2014,06,21,08,27,15.40
2014,06,21,08,28,15.40
2014,06,21,08,29,15.40
2014,06,21,08,30,15.40
2014,06,21,08,31,15.30
2014,06,21,08,32,15.30
2014,06,21,08,33,15.30
2014,06,21,08,34,15.30
2014,06,21,08,35,15.40
2014,06,21,08,36,15.40
2014,06,21,08,37,15.40
2014,06,21,08,38,15.40
2014,06,21,08,39,15.40
2014,06,21,08,40,15.50
2014,06,21,08,41,15.60
2014,06,21,08,42,15.60
2014,06,21,08,43,15.60
2014,06,21,08,44,15.70
2014,06,21,08,45,15.80
2014,06,21,08,46,15.80
2014,06,21,08,47,15.90
2014,06,21,08,48,15.90
2014,06,21,08,49,16.00
2014,06,21,08,50,16.10
2014,06,21,08,51,16.10
2014,06,21,08,52,16.20
2014,06,21,08,53,16.20
2014,06,21,08,54,16.30
2014,06,21,08,55,16.40
2014,06,21,08,56,16.40
2014,06,21,08,57,16.40
2014,06,21,08,58,16.40
2014,06,21,08,59,16.30
2014,06,21,09,00,16.10
2014,06,21,09,01,15.90
2014,06,21,09,02,15.80
2014,06,21,09,03,15.80
2014,06,21,09,04,15.70
2014,06,21,09,05,15.70
2014,06,21,09,06,15.70
2014,06,21,09,07,15.70
2014,06,21,09,08,15.60
2014,06,21,09,09,15.20
2014,06,21,09,10,14.80
2014,06,21,09,11,14.50
2014,06,21,09,12,14.20
2014,06,21,09,13,14.10
2014,06,21,09,14,14.00
2014,06,21,09,15,14.00
2014,06,21,09,16,14.00
2014,06,21,09,17,14.00
2014,06,21,09,18,14.00
2014,06,21,09,19,14.00
2014,06,21,09,20,14.00
2014,06,21,09,21,14.00
2014,06,21,09,22,14.00
2014,06,21,09,23,14.00
2014,06,21,09,24,14.10
2014,06,21,09,25,14.00
2014,06,21,09,26,14.00
2014,06,21,09,27,14.00
2014,06,21,09,28,14.00
2014,06,21,09,29,14.10
2014,06,21,09,30,14.10
2014,06,21,09,31,14.10
2014,06,21,09,32,14.10
2014,06,21,09,33,14.10
2014,06,21,09,34,14.10
2014,06,21,09,35,14.10
2014,06,21,09,36,14.10
2014,06,21,09,37,14.20
2014,06,21,09,38,14.30
2014,06,21,09,39,14.30
2014,06,21,09,40,14.40
2014,06,21,09,41,14.50
2014,06,21,09,42,14.50
2014,06,21,09,43,14.60
2014,06,21,09,44,14.70
2014,06,21,09,45,14.80
2014,06,21,09,46,14.80
2014,06,21,09,47,14.70
2014,06,21,09,48,14.60
2014,06,21,09,49,14.50
2014,06,21,09,50,14.40
2014,06,21,09,51,14.40
2014,06,21,09,52,14.40
2014,06,21,09,53,14.40
2014,06,21,09,54,14.40
2014,06,21,09,55,14.40
2014,06,21,09,56,14.40
2014,06,21,09,57,14.40
2014,06,21,09,58,14.40
2014,06,21,09,59,14.40
2014,06,21,10,00,14.40
2014,06,21,10,01,14.40
2014,06,21,10,02,14.50
2014,06,21,10,03,14.50
2014,06,21,10,04,14.50
2014,06,21,10,05,14.50
2014,06,21,10,06,14.60
2014,06,21,10,07,14.70
2014,06,21,10,08,14.80
2014,06,21,10,09,14.90
2014,06,21,10,10,15.00
2014,06,21,10,11,15.10
2014,06,21,10,12,15.10
2014,06,21,10,13,15.10
2014,06,21,10,14,15.10
2014,06,21,10,15,15.10
2014,06,21,10,16,15.10
2014,06,21,10,17,15.10
2014,06,21,10,18,15.00
2014,06,21,10,19,15.00
2014,06,21,10,20,15.00
2014,06,21,10,21,14.90
2014,06,21,10,22,14.90
2014,06,21,10,23,14.80
2014,06,21,10,24,14.80
2014,06,21,10,25,14.80
2014,06,21,10,26,14.80
2014,06,21,10,27,14.80
2014,06,21,10,28,14.80
2014,06,21,10,29,14.80
2014,06,21,10,30,14.80
2014,06,21,10,31,14.80
2014,06,21,10,32,14.80
2014,06,21,10,33,14.70
2014,06,21,10,34,14.60
2014,06,21,10,35,14.60
2014,06,21,10,36,14.60
2014,06,21,10,37,14.70
2014,06,21,10,38,14.80
2014,06,21,10,39,14.90
2014,06,21,10,40,15.00
2014,06,21,10,41,15.10
2014,06,21,10,42,15.10
2014,06,21,10,43,15.10
2014,06,21,10,44,15.10
2014,06,21,10,45,15.00
2014,06,21,10,46,14.90
2014,06,21,10,47,14.90
2014,06,21,10,48,15.00
2014,06,21,10,49,15.00
2014,06,21,10,50,15.00
2014,06,21,10,51,15.00
2014,06,21,10,52,15.00
2014,06,21,10,53,15.10
2014,06,21,10,54,15.10
2014,06,21,10,55,15.10
2014,06,21,10,56,15.10
2014,06,21,10,57,15.20
2014,06,21,10,58,15.30
2014,06,21,10,59,15.40
2014,06,21,11,00,15.40
2014,06,21,11,01,15.30
2014,06,21,11,02,15.30
2014,06,21,11,03,15.20
2014,06,21,11,04,15.20
2014,06,21,11,05,15.20
2014,06,21,11,06,15.20
2014,06,21,11,07,15.20
2014,06,21,11,08,15.30
2014,06,21,11,09,15.30
2014,06,21,11,10,15.30
2014,06,21,11,11,15.30
2014,06,21,11,12,15.30
2014,06,21,11,13,15.30
2014,06,21,11,14,15.30
2014,06,21,11,15,15.30
2014,06,21,11,16,15.30
2014,06,21,11,17,15.30
2014,06,21,11,18,15.30
2014,06,21,11,19,15.30
2014,06,21,11,20,15.30
2014,06,21,11,21,15.30
2014,06,21,11,22,15.30
2014,06,21,11,23,15.30
2014,06,21,11,24,15.20
2014,06,21,11,25,15.20
2014,06,21,11,26,15.20
2014,06,21,11,27,15.10
2014,06,21,11,28,15.10
2014,06,21,11,29,15.10
2014,06,21,11,30,15.20
2014,06,21,11,31,15.20
2014,06,21,11,32,15.30
2014,06,21,11,33,15.30
2014,06,21,11,34,15.30
2014,06,21,11,35,15.30
2014,06,21,11,36,15.30
2014,06,21,11,37,15.30
2014,06,21,11,38,15.30
2014,06,21,11,39,15.40
2014,06,21,11,40,15.40
2014,06,21,11,41,15.50
2014,06,21,11,42,15.50
2014,06,21,11,43,15.60
2014,06,21,11,44,15.50
2014,06,21,11,45,15.50
2014,06,21,11,46,15.40
2014,06,21,11,47,15.40
2014,06,21,11,48,15.40
2014,06,21,11,49,15.40
2014,06,21,11,50,15.50
2014,06,21,11,51,15.50
2014,06,21,11,52,15.60
2014,06,21,11,53,15.60
2014,06,21,11,54,15.70
2014,06,21,11,55,15.70
2014,06,21,11,56,15.70
2014,06,21,11,57,15.70
2014,06,21,11,58,15.70
2014,06,21,11,59,15.60
2014,06,21,12,00,15.60
2014,06,21,12,01,15.60
2014,06,21,12,02,15.60
2014,06,21,12,03,15.60
2014,06,21,12,04,15.60
2014,06,21,12,05,15.60
2014,06,21,12,06,15.60
2014,06,21,12,07,15.60
2014,06,21,12,08,15.70
2014,06,21,12,09,15.70
2014,06,21,12,10,15.70
2014,06,21,12,11,15.80
2014,06,21,12,12,15.80
2014,06,21,12,13,15.80
2014,06,21,12,14,15.80
2014,06,21,12,15,15.80
2014,06,21,12,16,15.90
2014,06,21,12,17,15.90
2014,06,21,12,18,15.90
2014,06,21,12,19,15.90
2014,06,21,12,20,15.90
2014,06,21,12,21,15.80
2014,06,21,12,22,15.70
2014,06,21,12,23,15.60
2014,06,21,12,24,15.60
2014,06,21,12,25,15.60
2014,06,21,12,26,15.70
2014,06,21,12,27,15.80
2014,06,21,12,28,15.90
2014,06,21,12,29,16.00
2014,06,21,12,30,16.00
2014,06,21,12,31,16.10
2014,06,21,12,32,16.00
2014,06,21,12,33,16.00
2014,06,21,12,34,16.00
2014,06,21,12,35,16.00
2014,06,21,12,36,16.00
2014,06,21,12,37,16.00
2014,06,21,12,38,16.00
2014,06,21,12,39,16.00
2014,06,21,12,40,16.00
2014,06,21,12,41,15.90
2014,06,21,12,42,15.90
2014,06,21,12,43,16.00
2014,06,21,12,44,16.00
2014,06,21,12,45,16.00
2014,06,21,12,46,15.90
2014,06,21,12,47,15.90
2014,06,21,12,48,15.90
2014,06,21,12,49,15.90
2014,06,21,12,50,15.90
2014,06,21,12,51,15.90
2014,06,21,12,52,15.90
2014,06,21,12,53,15.90
2014,06,21,12,54,15.90
2014,06,21,12,55,16.00
2014,06,21,12,56,16.00
2014,06,21,12,57,16.10
2014,06,21,12,58,16.10
2014,06,21,12,59,16.00
2014,06,21,13,00,16.10
2014,06,21,13,01,16.10
2014,06,21,13,02,16.10
2014,06,21,13,03,16.00
2014,06,21,13,04,15.90
2014,06,21,13,05,15.80
2014,06,21,13,06,15.80
2014,06,21,13,07,15.80
2014,06,21,13,08,15.80
2014,06,21,13,09,15.90
2014,06,21,13,10,15.90
2014,06,21,13,11,15.90
2014,06,21,13,12,15.90
2014,06,21,13,13,16.00
2014,06,21,13,14,16.10
2014,06,21,13,15,16.20
2014,06,21,13,16,16.20
2014,06,21,13,17,16.10
2014,06,21,13,18,16.00
2014,06,21,13,19,15.90
2014,06,21,13,20,15.90
2014,06,21,13,21,15.90
2014,06,21,13,22,15.90
2014,06,21,13,23,16.00
2014,06,21,13,24,16.00
2014,06,21,13,25,16.00
2014,06,21,13,26,16.10
2014,06,21,13,27,16.00
2014,06,21,13,28,16.10
2014,06,21,13,29,16.20
2014,06,21,13,30,16.20
2014,06,21,13,31,16.30
2014,06,21,13,32,16.30
2014,06,21,13,33,16.30
2014,06,21,13,34,16.30
2014,06,21,13,35,16.30
2014,06,21,13,36,16.30
2014,06,21,13,37,16.20
2014,06,21,13,38,16.20
2014,06,21,13,39,16.20
2014,06,21,13,40,16.20
2014,06,21,13,41,16.20
2014,06,21,13,42,16.00
2014,06,21,13,43,16.00
2014,06,21,13,44,16.00
2014,06,21,13,45,16.00
2014,06,21,13,46,16.10
2014,06,21,13,47,16.20
2014,06,21,13,48,16.30
2014,06,21,13,49,16.30
2014,06,21,13,50,16.40
2014,06,21,13,51,16.50
2014,06,21,13,52,16.50
2014,06,21,13,53,16.50
2014,06,21,13,54,16.50
2014,06,21,13,55,16.40
2014,06,21,13,56,16.40
2014,06,21,13,57,16.40
2014,06,21,13,58,16.30
2014,06,21,13,59,16.20
2014,06,21,14,00,16.10
2014,06,21,14,01,16.00
2014,06,21,14,02,15.80
2014,06,21,14,03,15.70
2014,06,21,14,04,15.60
2014,06,21,14,05,15.40
2014,06,21,14,06,15.40
2014,06,21,14,07,15.30
2014,06,21,14,08,15.30
2014,06,21,14,09,15.20
2014,06,21,14,10,15.20
2014,06,21,14,11,15.30
2014,06,21,14,12,15.30
2014,06,21,14,13,15.30
2014,06,21,14,14,15.40
2014,06,21,14,15,15.40
2014,06,21,14,16,15.50
2014,06,21,14,17,15.60
2014,06,21,14,18,15.60
2014,06,21,14,19,15.60
2014,06,21,14,20,15.60
2014,06,21,14,21,15.60
2014,06,21,14,22,15.50
2014,06,21,14,23,15.40
2014,06,21,14,24,15.40
2014,06,21,14,25,15.40
2014,06,21,14,26,15.40
2014,06,21,14,27,15.50
2014,06,21,14,28,15.50
2014,06,21,14,29,15.60
2014,06,21,14,30,15.60
2014,06,21,14,31,15.60
2014,06,21,14,32,15.60
2014,06,21,14,33,15.70
2014,06,21,14,34,15.70
2014,06,21,14,35,15.80
2014,06,21,14,36,15.90
2014,06,21,14,37,16.00
2014,06,21,14,38,16.10
2014,06,21,14,39,16.20
2014,06,21,14,40,16.30
2014,06,21,14,41,16.30
2014,06,21,14,42,16.30
2014,06,21,14,43,16.30
2014,06,21,14,44,16.30
2014,06,21,14,45,16.40
2014,06,21,14,46,16.40
2014,06,21,14,47,16.30
2014,06,21,14,48,16.30
2014,06,21,14,49,16.30
2014,06,21,14,50,16.30
2014,06,21,14,51,16.30
2014,06,21,14,52,16.30
2014,06,21,14,53,16.30
2014,06,21,14,54,16.30
2014,06,21,14,55,16.30
2014,06,21,14,56,16.30
2014,06,21,14,57,16.20
2014,06,21,14,58,16.30
2014,06,21,14,59,16.30
2014,06,21,15,00,16.30
2014,06,21,15,01,16.40
2014,06,21,15,02,16.50
2014,06,21,15,03,16.60
2014,06,21,15,04,16.70
2014,06,21,15,05,16.80
2014,06,21,15,06,16.90
2014,06,21,15,07,17.00
2014,06,21,15,08,17.00
2014,06,21,15,09,17.10
2014,06,21,15,10,17.10
2014,06,21,15,11,17.00
2014,06,21,15,12,16.90
2014,06,21,15,13,16.80
2014,06,21,15,14,16.70
2014,06,21,15,15,16.60
2014,06,21,15,16,16.60
2014,06,21,15,17,16.60
2014,06,21,15,18,16.60
2014,06,21,15,19,16.50
2014,06,21,15,20,16.50
2014,06,21,15,21,16.50
2014,06,21,15,22,16.50
2014,06,21,15,23,16.60
2014,06,21,15,24,16.60
2014,06,21,15,25,16.60
2014,06,21,15,26,16.60
2014,06,21,15,27,16.70
2014,06,21,15,28,16.80
2014,06,21,15,29,16.90
2014,06,21,15,30,17.10
2014,06,21,15,31,17.30
2014,06,21,15,32,17.60
2014,06,21,15,33,17.80
2014,06,21,15,34,18.00
2014,06,21,15,35,18.20
2014,06,21,15,36,18.20
2014,06,21,15,37,18.20
2014,06,21,15,38,18.20
2014,06,21,15,39,18.20
2014,06,21,15,40,18.10
2014,06,21,15,41,18.00
2014,06,21,15,42,17.80
2014,06,21,15,43,17.80
2014,06,21,15,44,17.80
2014,06,21,15,45,17.70
2014,06,21,15,46,17.70
2014,06,21,15,47,17.60
2014,06,21,15,48,17.60
2014,06,21,15,49,17.60
2014,06,21,15,50,17.60
2014,06,21,15,51,17.60
2014,06,21,15,52,17.60
2014,06,21,15,53,17.70
2014,06,21,15,54,17.60
2014,06,21,15,55,17.60
2014,06,21,15,56,17.60
2014,06,21,15,57,17.60
2014,06,21,15,58,17.70
2014,06,21,15,59,17.70
2014,06,21,16,00,17.70
2014,06,21,16,01,17.80
2014,06,21,16,02,17.80
2014,06,21,16,03,17.90
2014,06,21,16,04,17.90
2014,06,21,16,05,17.90
2014,06,21,16,06,18.00
2014,06,21,16,07,18.10
2014,06,21,16,08,18.30
2014,06,21,16,09,18.50
2014,06,21,16,10,18.60
2014,06,21,16,11,18.70
2014,06,21,16,12,18.80
2014,06,21,16,13,18.90
2014,06,21,16,14,19.10
2014,06,21,16,15,19.20
2014,06,21,16,16,19.30
2014,06,21,16,17,19.40
2014,06,21,16,18,19.40
2014,06,21,16,19,19.50
2014,06,21,16,20,19.50
2014,06,21,16,21,19.60
2014,06,21,16,22,19.60
2014,06,21,16,23,19.60
2014,06,21,16,24,19.50
2014,06,21,16,25,19.40
2014,06,21,16,26,19.40
2014,06,21,16,27,19.30
2014,06,21,16,28,19.30
2014,06,21,16,29,19.40
2014,06,21,16,30,19.40
2014,06,21,16,31,19.50
2014,06,21,16,32,19.50
2014,06,21,16,33,19.60
2014,06,21,16,34,19.70
2014,06,21,16,35,19.80
2014,06,21,16,36,19.90
2014,06,21,16,37,20.00
2014,06,21,16,38,20.00
2014,06,21,16,39,20.10
2014,06,21,16,40,20.10
2014,06,21,16,41,20.20
2014,06,21,16,42,20.30
2014,06,21,16,43,20.40
2014,06,21,16,44,20.40
2014,06,21,16,45,20.40
2014,06,21,16,46,20.30
2014,06,21,16,47,20.30
2014,06,21,16,48,20.20
2014,06,21,16,49,20.20
2014,06,21,16,50,20.20
2014,06,21,16,51,20.20
2014,06,21,16,52,20.20
2014,06,21,16,53,20.20
2014,06,21,16,54,20.20
2014,06,21,16,55,20.20
2014,06,21,16,56,20.20
2014,06,21,16,57,20.20
2014,06,21,16,58,20.30
2014,06,21,16,59,20.30
2014,06,21,17,00,20.20
2014,06,21,17,01,20.00
2014,06,21,17,02,19.90
2014,06,21,17,03,19.80
2014,06,21,17,04,19.60
2014,06,21,17,05,19.60
2014,06,21,17,06,19.50
2014,06,21,17,07,19.50
2014,06,21,17,08,19.50
2014,06,21,17,09,19.50
2014,06,21,17,10,19.60
2014,06,21,17,11,19.60
2014,06,21,17,12,19.70
2014,06,21,17,13,19.80
2014,06,21,17,14,19.80
2014,06,21,17,15,19.80
2014,06,21,17,16,19.80
2014,06,21,17,17,19.80
2014,06,21,17,18,19.70
2014,06,21,17,19,19.70
2014,06,21,17,20,19.70
2014,06,21,17,21,19.60
2014,06,21,17,22,19.60
2014,06,21,17,23,19.60
2014,06,21,17,24,19.60
2014,06,21,17,25,19.70
2014,06,21,17,26,19.70
2014,06,21,17,27,19.70